Total_Precipitation_Accumulation
1.09 1.09 1.04 1.06 0.95 0.90 0.97 1.02 1.05 1.08 0.98 0.84 0.78 0.78 0.84 0.78 0.76 0.91 1.20 1.59 2.08 2.49 2.64 2.54 2.33 2.23 2.27 2.27 2.39 2.55 2.75 2.82 2.64 2.45 2.21 2.07 2.26 2.39 2.08 2.00 1.98 2.00 2.14
1.12 1.18 1.13 1.08 1.02 0.93 0.96 1.14 1.09 1.12 1.10 1.02 0.85 0.82 0.82 0.78 0.75 0.81 0.97 1.29 1.59 1.90 2.31 2.62 2.49 2.27 2.12 2.09 2.10 2.24 2.55 2.61 2.36 2.27 2.20 2.12 2.35 2.48 2.19 2.03 1.93 1.83 2.04
1.05 1.11 1.12 1.06 1.04 1.04 1.05 1.10 1.11 1.16 1.07 0.99 0.95 0.87 0.83 0.79 0.71 0.79 0.80 0.92 0.99 1.24 1.66 2.09 2.39 2.38 2.28 2.26 2.20 2.28 2.52 2.46 2.21 2.22 2.32 2.31 2.28 2.32 2.23 2.05 1.89 1.82 1.93
1.12 1.11 1.14 1.12 1.15 1.19 1.17 1.19 1.24 1.22 1.15 1.14 1.11 1.06 0.88 0.88 0.79 0.81 0.80 0.82 0.88 0.86 1.05 1.31 1.65 1.97 2.23 2.41 2.57 2.73 2.62 2.39 2.19 2.17 2.29 2.17 2.07 2.16 2.21 2.11 1.87 1.72 1.66
1.19 1.30 1.33 1.35 1.31 1.33 1.32 1.28 1.31 1.21 1.20 1.21 1.14 1.14 1.03 0.99 0.92 0.79 0.86 0.88 0.88 0.82 0.87 0.82 0.92 1.12 1.47 1.95 2.57 2.88 2.53 2.34 2.20 2.04 2.00 1.94 1.96 2.05 2.06 1.87 1.68 1.55 1.51
1.41 1.60 1.69 1.59 1.56 1.56 1.55 1.51 1.56 1.44 1.31 1.33 1.23 1.19 1.10 0.97 1.01 0.96 0.92 0.92 0.96 0.92 0.85 0.74 0.71 0.64 0.81 1.26 1.98 2.46 2.42 2.31 2.15 2.05 1.91 1.85 1.90 2.00 1.98 1.84 1.71 1.68 1.63
1.74 1.88 1.81 1.89 1.90 1.78 1.80 1.87 1.91 1.87 1.66 1.51 1.57 1.47 1.18 0.93 0.99 0.96 0.91 0.95 1.00 1.10 1.12 0.98 0.84 0.75 0.72 0.84 1.30 1.87 2.24 2.28 2.28 2.12 2.00 1.97 1.93 1.95 1.96 1.92 1.89 1.86 1.83
1.99 2.02 2.08 2.18 2.20 2.20 2.15 2.05 2.18 2.32 2.04 1.78 1.88 2.18 1.80 1.39 1.01 0.80 0.87 0.91 1.01 1.24 1.31 1.12 0.93 0.86 0.83 0.92 0.87 1.17 1.60 2.01 2.22 2.23 2.15 2.09 2.07 2.10 2.13 1.99 1.87 1.86 1.88
2.20 2.24 2.28 2.34 2.36 2.19 2.19 2.30 2.44 2.79 2.59 2.20 1.98 2.25 2.10 1.79 1.45 1.01 0.90 0.94 1.03 1.20 1.32 1.34 1.22 1.15 1.05 1.07 1.03 0.85 1.04 1.47 1.88 2.21 2.33 2.31 2.19 2.38 2.59 2.35 2.00 1.82 1.70
2.15 2.27 2.27 2.25 2.23 2.16 2.22 2.28 2.34 2.77 2.97 2.67 2.31 1.92 1.71 1.68 1.75 1.47 1.07 1.00 1.08 1.09 1.20 1.29 1.23 1.29 1.28 1.28 1.26 1.01 0.93 1.16 1.50 1.99 2.40 2.72 2.55 2.39 2.42 2.49 2.30 1.96 1.69
2.01 2.03 2.03 2.13 2.16 2.20 2.26 2.41 2.54 2.81 2.83 2.82 2.63 2.41 2.19 1.87 1.53 1.60 1.54 1.26 1.19 1.09 1.18 1.31 1.35 1.43 1.46 1.48 1.60 1.33 1.04 0.94 1.14 1.58 2.16 2.70 2.86 2.61 2.41 2.37 2.32 2.16 1.87
1.99 1.91 1.86 1.93 2.06 2.21 2.26 2.36 2.52 2.76 2.86 2.94 2.84 2.57 2.48 2.32 2.02 1.90 1.63 1.48 1.47 1.25 1.21 1.25 1.29 1.42 1.57 1.65 1.60 1.71 1.38 0.98 0.89 1.16 1.54 2.07 2.71 2.93 2.77 2.66 2.55 2.46 2.27
1.72 1.75 1.81 1.88 2.02 2.12 2.19 2.31 2.46 2.51 2.62 2.85 2.85 2.67 2.46 2.27 2.25 2.12 1.99 1.67 1.49 1.31 1.28 1.29 1.23 1.29 1.32 1.59 1.72 1.79 1.47 1.14 0.87 0.88 1.05 1.31 1.83 2.42 2.73 2.75 2.75 2.87 2.82
1.61 1.57 1.60 1.67 1.88 2.07 2.15 2.24 2.26 2.24 2.29 2.47 2.47 2.53 2.50 2.23 2.18 2.07 2.04 2.11 1.84 1.63 1.46 1.27 1.14 1.19 1.24 1.44 1.74 1.82 1.39 1.22 0.99 0.85 0.89 1.09 1.26 1.47 1.82 2.35 2.69 2.90 3.09
1.40 1.36 1.39 1.41 1.53 1.75 1.99 2.14 2.09 2.01 1.97 2.13 2.19 2.28 2.41 2.43 2.34 2.23 2.18 2.24 2.19 1.94 1.74 1.50 1.25 1.12 1.20 1.33 1.73 1.65 1.44 1.30 1.19 1.00 0.91 0.97 1.02 1.14 1.23 1.52 1.86 2.06 2.27
1.20 1.17 1.17 1.24 1.38 1.51 1.70 1.92 2.01 1.94 1.93 1.98 2.09 2.21 2.35 2.45 2.49 2.28 2.24 2.20 2.06 1.98 1.84 1.50 1.26 1.16 1.24 1.23 1.58 1.59 1.54 1.54 1.32 1.16 1.07 1.04 1.09 1.07 1.07 1.18 1.28 1.33 1.32
0.99 1.00 1.16 1.22 1.28 1.37 1.57 1.83 2.00 2.01 1.94 1.94 1.90 1.97 2.15 2.24 2.46 2.42 2.32 2.21 2.07 1.92 1.80 1.60 1.38 1.22 1.27 1.33 1.44 1.53 1.52 1.42 1.25 1.22 1.09 1.05 1.06 1.09 1.07 1.10 1.21 1.15 1.06
0.76 0.86 0.98 1.02 1.07 1.11 1.30 1.58 1.77 1.82 1.81 1.73 1.70 1.81 2.02 2.20 2.41 2.51 2.45 2.28 2.19 2.05 1.94 1.88 1.69 1.48 1.35 1.40 1.53 1.62 1.58 1.51 1.43 1.44 1.30 1.17 1.12 1.09 1.09 1.07 1.12 1.18 1.14
0.78 0.88 0.95 1.00 1.02 1.07 1.12 1.22 1.38 1.50 1.49 1.45 1.48 1.55 1.58 1.78 2.07 2.25 2.26 2.28 2.31 2.27 2.23 2.07 1.87 1.75 1.60 1.48 1.58 1.63 1.61 1.65 1.51 1.53 1.51 1.42 1.37 1.32 1.23 1.14 1.10 1.12 1.16
0.75 0.84 0.88 0.95 1.02 1.06 1.07 1.08 1.10 1.16 1.16 1.23 1.30 1.33 1.37 1.43 1.66 1.84 1.92 2.11 2.34 2.36 2.37 2.28 2.04 1.88 1.76 1.62 1.68 1.80 1.86 1.82 1.67 1.48 1.47 1.42 1.48 1.44 1.33 1.16 1.09 1.07 1.11
0.66 0.75 0.80 0.80 0.84 0.94 1.03 1.07 0.94 0.90 0.98 1.09 1.11 1.06 1.07 1.17 1.31 1.43 1.48 1.83 2.18 2.38 2.37 2.30 2.13 2.03 1.80 1.67 1.53 1.56 1.76 2.00 1.98 1.89 1.78 1.53 1.48 1.38 1.32 1.31 1.20 1.11 1.10
0.64 0.70 0.68 0.69 0.78 0.80 0.96 0.96 0.81 0.79 0.84 0.94 1.02 0.98 0.86 0.84 0.90 1.00 1.09 1.26 1.53 1.78 2.07 2.26 2.15 1.94 1.72 1.64 1.61 1.63 1.67 1.81 1.98 1.87 1.91 1.90 1.82 1.75 1.64 1.53 1.54 1.44 1.32
0.60 0.62 0.62 0.61 0.64 0.77 0.82 0.68 0.68 0.72 0.79 0.84 0.90 0.95 0.85 0.73 0.81 0.86 0.97 1.06 1.05 1.13 1.43 1.79 1.91 1.82 1.89 1.78 1.75 1.69 1.66 1.74 1.81 1.79 1.95 2.00 1.95 1.93 1.86 1.85 1.95 1.80 1.61
0.65 0.65 0.67 0.65 0.63 0.70 0.70 0.57 0.63 0.65 0.69 0.75 0.84 0.93 0.96 0.88 0.87 0.98 0.98 1.02 0.96 0.91 1.13 1.15 1.32 1.62 1.79 1.88 1.85 1.94 2.09 2.04 1.90 1.79 1.79 1.83 1.73 1.74 1.77 1.79 1.93 1.87 1.73
0.61 0.66 0.71 0.71 0.64 0.62 0.67 0.57 0.58 0.62 0.66 0.71 0.74 0.81 0.89 0.85 1.00 1.10 1.08 1.20 1.18 1.05 1.18 1.26 1.31 1.37 1.49 1.64 1.76 1.82 1.89 1.95 1.93 1.84 1.67 1.54 1.49 1.49 1.55 1.57 1.60 1.70 1.70
0.40 0.51 0.54 0.56 0.60 0.58 0.75 0.65 0.63 0.63 0.69 0.79 0.82 0.80 0.95 0.96 1.06 1.04 0.99 1.22 1.23 1.11 1.03 1.09 1.10 1.10 1.05 1.16 1.39 1.54 1.75 1.85 1.82 1.73 1.49 1.36 1.34 1.38 1.39 1.25 1.16 1.19 1.22